Find Starlink 30074

NORAD ID: 57508 Int'l Des: 2023-113 Owner: SPXS Country: US Constellation: starlink operational
LEOCIRCULAR

当前视图

正在加载3D地球...

About Starlink 30074

Starlink 30074 (NORAD 57508) is a starlink constellation satellite (v2 mini) launched Aug 7, 2023 by SPXS of US. It operates in LEO, CIRCULAR orbit with a mass of 730.00 kg.

关于 Starlink 30074

正在加载描述...

即将过境

Passes for default location (London). Set your location on the main map for personalized predictions.

高度历史

Loading altitude history...

两行轨道根数

1 57508U 23113P 26174.94389451 .00005869 00000-0 22271-3 0 9993
2 57508 43.0037 136.1467 0001259 250.6788 109.3927 15.27566365159715
Epoch: Jun 23, 2026 • Age: 15 hours

当前状态

高度 486.7 km
速度 7.63 km/s
星下点 41.93°N, 128.35°E
发射日期 Aug 7, 2023
运行时间 2.8 years
类型 internet

技术详情

分类 Payload
质量 730.00 kg
干质量 700.00 kg
总质量 730.00 kg
长度 0.30 m
直径 4.10 m
跨度 29.00 m
形状 Box + pan
制造商 SPXS
平台类型 Starlink V2M
阶段状态 In Orbit
所有者/国家 SPXS/US

Most Searched